contact:dominique.lefevre@mio.osupytheas.fr, maurice.libes@osupytheas.fr, didier.mallarino@osupytheas.fr
Project:EMSO http://www.emso-fr.org/EMSO-France
Depth: 2436.0 m
Title:EMSO Ligure Ouest : Data MII capteur MICROCAT
DateTime_Computer,Latitude,Longitude,Temperature,Conductivity,Pressure,DateTime_Instrument
DateTime_Computer,Latitude,Longitude,degC,S m-1,dbar,DateTime_Instrument
2022-06-04T00:00:42Z,42.805,6.029,13.3022,4.60089,2470.754,2022-6-04T02:02:24Z
2022-06-04T00:03:45Z,42.805,6.029,13.3017,4.60085,2470.777,2022-6-04T02:05:28Z
2022-06-04T00:06:48Z,42.805,6.029,13.3026,4.60079,2470.74,2022-6-04T02:08:31Z
2022-06-04T00:09:51Z,42.805,6.029,13.3015,4.60077,2470.74,2022-6-04T02:11:34Z
2022-06-04T00:12:54Z,42.805,6.029,13.3015,4.60082,2470.74,2022-6-04T02:14:37Z
2022-06-04T00:15:58Z,42.805,6.029,13.3021,4.60086,2470.74,2022-6-04T02:17:40Z
2022-06-04T00:19:01Z,42.805,6.029,13.3011,4.60089,2470.754,2022-6-04T02:20:43Z
2022-06-04T00:22:04Z,42.805,6.029,13.3014,4.60059,2470.754,2022-6-04T02:23:46Z
2022-06-04T00:25:07Z,42.805,6.029,13.3009,4.60062,2470.74,2022-6-04T02:26:49Z
2022-06-04T00:28:10Z,42.805,6.029,13.3012,4.60069,2470.717,2022-6-04T02:29:53Z
2022-06-04T00:31:13Z,42.805,6.029,13.3009,4.60080,2470.754,2022-6-04T02:32:56Z
2022-06-04T00:34:16Z,42.805,6.029,13.3017,4.60105,2470.754,2022-6-04T02:35:59Z
2022-06-04T00:37:19Z,42.805,6.029,13.3021,4.60090,2470.754,2022-6-04T02:39:02Z
2022-06-04T00:40:23Z,42.805,6.029,13.3025,4.60089,2470.717,2022-6-04T02:42:05Z
2022-06-04T00:43:26Z,42.805,6.029,13.3009,4.60064,2470.717,2022-6-04T02:45:08Z
2022-06-04T00:46:29Z,42.805,6.029,13.3021,4.60093,2470.717,2022-6-04T02:48:11Z
2022-06-04T00:49:32Z,42.805,6.029,13.3014,4.60088,2470.73,2022-6-04T02:51:14Z
2022-06-04T00:52:35Z,42.805,6.029,13.3022,4.60095,2470.717,2022-6-04T02:54:17Z
2022-06-04T00:55:38Z,42.805,6.029,13.3011,4.60085,2470.717,2022-6-04T02:57:21Z
2022-06-04T00:58:41Z,42.805,6.029,13.3015,4.60064,2470.763,2022-6-04T03:00:24Z
2022-06-04T01:01:44Z,42.805,6.029,13.3015,4.60074,2470.693,2022-6-04T03:03:27Z
2022-06-04T01:04:47Z,42.805,6.029,13.3024,4.60084,2470.73,2022-6-04T03:06:30Z
2022-06-04T01:07:51Z,42.805,6.029,13.3019,4.60071,2470.717,2022-6-04T03:09:33Z
2022-06-04T01:10:54Z,42.805,6.029,13.3014,4.60079,2470.693,2022-6-04T03:12:36Z
2022-06-04T01:13:57Z,42.805,6.029,13.3019,4.60070,2470.693,2022-6-04T03:15:39Z
2022-06-04T01:17:00Z,42.805,6.029,13.3009,4.60059,2470.717,2022-6-04T03:18:42Z
2022-06-04T01:20:03Z,42.805,6.029,13.3011,4.60065,2470.707,2022-6-04T03:21:46Z
2022-06-04T01:23:06Z,42.805,6.029,13.3012,4.60063,2470.717,2022-6-04T03:24:49Z
2022-06-04T01:26:09Z,42.805,6.029,13.3031,4.60070,2470.707,2022-6-04T03:27:52Z
2022-06-04T01:29:12Z,42.805,6.029,13.3014,4.60065,2470.73,2022-6-04T03:30:55Z
2022-06-04T01:32:16Z,42.805,6.029,13.3024,4.60091,2470.693,2022-6-04T03:33:58Z
2022-06-04T01:35:19Z,42.805,6.029,13.3026,4.60081,2470.693,2022-6-04T03:37:01Z
2022-06-04T01:38:22Z,42.805,6.029,13.3031,4.60113,2470.693,2022-6-04T03:40:04Z
2022-06-04T01:41:25Z,42.805,6.029,13.3047,4.60097,2470.74,2022-6-04T03:43:07Z
2022-06-04T01:44:28Z,42.805,6.029,13.3015,4.60084,2470.717,2022-6-04T03:46:10Z
2022-06-04T01:47:31Z,42.805,6.029,13.3022,4.60084,2470.717,2022-6-04T03:49:14Z
2022-06-04T01:50:34Z,42.805,6.029,13.3021,4.60073,2470.707,2022-6-04T03:52:17Z
2022-06-04T01:53:37Z,42.805,6.029,13.3020,4.60063,2470.679,2022-6-04T03:55:20Z
2022-06-04T01:56:40Z,42.805,6.029,13.3014,4.60061,2470.646,2022-6-04T03:58:23Z
2022-06-04T01:59:44Z,42.805,6.029,13.3013,4.60066,2470.67,2022-6-04T04:01:26Z
2022-06-04T02:02:47Z,42.805,6.029,13.3019,4.60093,2470.67,2022-6-04T04:04:29Z
2022-06-04T02:05:50Z,42.805,6.029,13.3021,4.60072,2470.67,2022-6-04T04:07:32Z
2022-06-04T02:08:53Z,42.805,6.029,13.3025,4.60067,2470.684,2022-6-04T04:10:35Z
2022-06-04T02:11:56Z,42.805,6.029,13.3026,4.60087,2470.684,2022-6-04T04:13:39Z
2022-06-04T02:14:59Z,42.805,6.029,13.3018,4.60086,2470.67,2022-6-04T04:16:42Z
2022-06-04T02:18:02Z,42.805,6.029,13.3035,4.60081,2470.693,2022-6-04T04:19:45Z
2022-06-04T02:21:05Z,42.805,6.029,13.3024,4.60098,2470.684,2022-6-04T04:22:48Z
2022-06-04T02:24:09Z,42.805,6.029,13.3017,4.60101,2470.684,2022-6-04T04:25:51Z
2022-06-04T02:27:12Z,42.805,6.029,13.3050,4.60102,2470.684,2022-6-04T04:28:54Z
2022-06-04T02:30:15Z,42.805,6.029,13.3009,4.60098,2470.661,2022-6-04T04:31:57Z
2022-06-04T02:33:18Z,42.805,6.029,13.3016,4.60099,2470.684,2022-6-04T04:35:00Z
2022-06-04T02:36:21Z,42.805,6.029,13.3025,4.60102,2470.707,2022-6-04T04:38:03Z
2022-06-04T02:39:24Z,42.805,6.029,13.3019,4.60096,2470.679,2022-6-04T04:41:07Z
2022-06-04T02:42:27Z,42.805,6.029,13.3037,4.60094,2470.67,2022-6-04T04:44:10Z
2022-06-04T02:45:30Z,42.805,6.029,13.3041,4.60105,2470.679,2022-6-04T04:47:13Z
2022-06-04T02:48:33Z,42.805,6.029,13.3024,4.60105,2470.67,2022-6-04T04:50:16Z
2022-06-04T02:51:37Z,42.805,6.029,13.3036,4.60117,2470.684,2022-6-04T04:53:19Z
2022-06-04T02:54:40Z,42.805,6.029,13.3038,4.60098,2470.67,2022-6-04T04:56:22Z
2022-06-04T02:57:43Z,42.805,6.029,13.3035,4.60074,2470.661,2022-6-04T04:59:25Z
2022-06-04T03:00:46Z,42.805,6.029,13.3023,4.60106,2470.661,2022-6-04T05:02:28Z
2022-06-04T03:03:49Z,42.805,6.029,13.3031,4.60117,2470.646,2022-6-04T05:05:31Z
2022-06-04T03:06:52Z,42.805,6.029,13.3019,4.60082,2470.67,2022-6-04T05:08:35Z
2022-06-04T03:09:55Z,42.805,6.029,13.3018,4.60084,2470.624,2022-6-04T05:11:38Z
2022-06-04T03:12:58Z,42.805,6.029,13.3031,4.60074,2470.67,2022-6-04T05:14:41Z
2022-06-04T03:16:01Z,42.805,6.029,13.3035,4.60111,2470.693,2022-6-04T05:17:44Z
2022-06-04T03:19:05Z,42.805,6.029,13.3036,4.60094,2470.67,2022-6-04T05:20:47Z
2022-06-04T03:22:08Z,42.805,6.029,13.3041,4.60092,2470.67,2022-6-04T05:23:50Z
2022-06-04T03:25:11Z,42.805,6.029,13.3031,4.60086,2470.67,2022-6-04T05:26:53Z
2022-06-04T03:28:14Z,42.805,6.029,13.3025,4.60102,2470.67,2022-6-04T05:29:56Z
2022-06-04T03:31:17Z,42.805,6.029,13.3021,4.60083,2470.624,2022-6-04T05:33:00Z
2022-06-04T03:34:20Z,42.805,6.029,13.3010,4.60055,2470.646,2022-6-04T05:36:03Z
2022-06-04T03:37:23Z,42.805,6.029,13.3014,4.60079,2470.67,2022-6-04T05:39:06Z
2022-06-04T03:40:26Z,42.805,6.029,13.3034,4.60080,2470.684,2022-6-04T05:42:09Z
2022-06-04T03:43:30Z,42.805,6.029,13.3044,4.60081,2470.661,2022-6-04T05:45:12Z
2022-06-04T03:46:33Z,42.805,6.029,13.3015,4.60087,2470.661,2022-6-04T05:48:15Z
2022-06-04T03:49:36Z,42.805,6.029,13.3021,4.60097,2470.624,2022-6-04T05:51:18Z
2022-06-04T03:52:39Z,42.805,6.029,13.3030,4.60123,2470.646,2022-6-04T05:54:21Z
2022-06-04T03:55:42Z,42.805,6.029,13.3046,4.60110,2470.624,2022-6-04T05:57:25Z
2022-06-04T03:58:45Z,42.805,6.029,13.3041,4.60104,2470.67,2022-6-04T06:00:28Z
2022-06-04T04:01:48Z,42.805,6.029,13.3042,4.60049,2470.646,2022-6-04T06:03:31Z
2022-06-04T04:04:51Z,42.805,6.029,13.3045,4.60107,2470.646,2022-6-04T06:06:34Z
2022-06-04T04:07:54Z,42.805,6.029,13.3036,4.60102,2470.661,2022-6-04T06:09:37Z
2022-06-04T04:10:58Z,42.805,6.029,13.3024,4.60087,2470.661,2022-6-04T06:12:40Z
2022-06-04T04:14:01Z,42.805,6.029,13.3021,4.60099,2470.684,2022-6-04T06:15:43Z
2022-06-04T04:17:04Z,42.805,6.029,13.3026,4.60112,2470.646,2022-6-04T06:18:46Z
2022-06-04T04:20:07Z,42.805,6.029,13.3026,4.60090,2470.646,2022-6-04T06:21:49Z
2022-06-04T04:23:10Z,42.805,6.029,13.3027,4.60090,2470.646,2022-6-04T06:24:53Z
2022-06-04T04:26:13Z,42.805,6.029,13.3019,4.60119,2470.684,2022-6-04T06:27:56Z
2022-06-04T04:29:16Z,42.805,6.029,13.3036,4.60110,2470.684,2022-6-04T06:30:59Z
2022-06-04T04:32:19Z,42.805,6.029,13.3039,4.60103,2470.624,2022-6-04T06:34:02Z
2022-06-04T04:35:23Z,42.805,6.029,13.3041,4.60062,2470.6,2022-6-04T06:37:05Z
2022-06-04T04:38:26Z,42.805,6.029,13.3031,4.60092,2470.67,2022-6-04T06:40:08Z
2022-06-04T04:41:29Z,42.805,6.029,13.3016,4.60117,2470.624,2022-6-04T06:43:11Z
2022-06-04T04:44:32Z,42.805,6.029,13.3021,4.60116,2470.646,2022-6-04T06:46:14Z
2022-06-04T04:47:35Z,42.805,6.029,13.3018,4.60144,2470.624,2022-6-04T06:49:17Z
2022-06-04T04:50:38Z,42.805,6.029,13.3030,4.60137,2470.646,2022-6-04T06:52:21Z
2022-06-04T04:53:41Z,42.805,6.029,13.3026,4.60128,2470.637,2022-6-04T06:55:24Z
2022-06-04T04:56:44Z,42.805,6.029,13.3031,4.60128,2470.6,2022-6-04T06:58:27Z
2022-06-04T04:59:47Z,42.805,6.029,13.3038,4.60076,2470.624,2022-6-04T07:01:30Z
2022-06-04T05:02:51Z,42.805,6.029,13.3017,4.60094,2470.637,2022-6-04T07:04:33Z
2022-06-04T05:05:54Z,42.805,6.029,13.3021,4.60153,2470.646,2022-6-04T07:07:36Z
2022-06-04T05:08:57Z,42.805,6.029,13.3036,4.60125,2470.624,2022-6-04T07:10:39Z
2022-06-04T05:12:00Z,42.805,6.029,13.3053,4.60139,2470.661,2022-6-04T07:13:42Z
2022-06-04T05:15:03Z,42.805,6.029,13.3048,4.60137,2470.6,2022-6-04T07:16:46Z
2022-06-04T05:18:06Z,42.805,6.029,13.3037,4.60127,2470.614,2022-6-04T07:19:49Z
2022-06-04T05:21:09Z,42.805,6.029,13.3041,4.60127,2470.624,2022-6-04T07:22:52Z
2022-06-04T05:24:12Z,42.805,6.029,13.3053,4.60127,2470.646,2022-6-04T07:25:55Z
2022-06-04T05:27:15Z,42.805,6.029,13.3039,4.60108,2470.6,2022-6-04T07:28:58Z
2022-06-04T05:30:19Z,42.805,6.029,13.3033,4.60114,2470.637,2022-6-04T07:32:01Z
2022-06-04T05:33:22Z,42.805,6.029,13.3031,4.60131,2470.624,2022-6-04T07:35:04Z
2022-06-04T05:36:25Z,42.805,6.029,13.3039,4.60093,2470.637,2022-6-04T07:38:07Z
2022-06-04T05:39:28Z,42.805,6.029,13.3026,4.60086,2470.624,2022-6-04T07:41:10Z
2022-06-04T05:42:31Z,42.805,6.029,13.3021,4.60087,2470.637,2022-6-04T07:44:14Z
2022-06-04T05:45:34Z,42.805,6.029,13.3018,4.60110,2470.624,2022-6-04T07:47:17Z
2022-06-04T05:48:37Z,42.805,6.029,13.3022,4.60122,2470.646,2022-6-04T07:50:20Z
2022-06-04T05:51:40Z,42.805,6.029,13.3046,4.60137,2470.646,2022-6-04T07:53:23Z
2022-06-04T05:54:44Z,42.805,6.029,13.3026,4.60112,2470.661,2022-6-04T07:56:26Z
2022-06-04T05:57:47Z,42.805,6.029,13.3029,4.60076,2470.6,2022-6-04T07:59:29Z
2022-06-04T06:00:50Z,42.805,6.029,13.3031,4.60126,2470.646,2022-6-04T08:02:32Z
2022-06-04T06:03:53Z,42.805,6.029,13.3036,4.60092,2470.646,2022-6-04T08:05:35Z
2022-06-04T06:06:56Z,42.805,6.029,13.3019,4.60108,2470.624,2022-6-04T08:08:39Z
2022-06-04T06:09:59Z,42.805,6.029,13.3025,4.60119,2470.637,2022-6-04T08:11:42Z
2022-06-04T06:13:02Z,42.805,6.029,13.3019,4.60135,2470.661,2022-6-04T08:14:45Z
2022-06-04T06:16:05Z,42.805,6.029,13.3017,4.60107,2470.707,2022-6-04T08:17:48Z
2022-06-04T06:19:08Z,42.805,6.029,13.3021,4.60137,2470.624,2022-6-04T08:20:51Z
2022-06-04T06:22:12Z,42.805,6.029,13.3031,4.60066,2470.646,2022-6-04T08:23:54Z
2022-06-04T06:25:15Z,42.805,6.029,13.3021,4.60081,2470.646,2022-6-04T08:26:57Z
2022-06-04T06:28:18Z,42.805,6.029,13.3031,4.60079,2470.661,2022-6-04T08:30:00Z
2022-06-04T06:31:21Z,42.805,6.029,13.3025,4.60118,2470.624,2022-6-04T08:33:03Z
2022-06-04T06:34:24Z,42.805,6.029,13.3029,4.60142,2470.646,2022-6-04T08:36:07Z
2022-06-04T06:37:27Z,42.805,6.029,13.3040,4.60119,2470.67,2022-6-04T08:39:10Z
2022-06-04T06:40:30Z,42.805,6.029,13.3047,4.60133,2470.646,2022-6-04T08:42:13Z
2022-06-04T06:43:33Z,42.805,6.029,13.3053,4.60087,2470.67,2022-6-04T08:45:16Z
2022-06-04T06:46:37Z,42.805,6.029,13.3066,4.60085,2470.661,2022-6-04T08:48:19Z
2022-06-04T06:49:40Z,42.805,6.029,13.3053,4.60111,2470.633,2022-6-04T08:51:22Z
2022-06-04T06:52:43Z,42.805,6.029,13.3051,4.60111,2470.661,2022-6-04T08:54:25Z
2022-06-04T06:55:46Z,42.805,6.029,13.3042,4.60077,2470.646,2022-6-04T08:57:28Z
2022-06-04T06:58:49Z,42.805,6.029,13.3042,4.60093,2470.646,2022-6-04T09:00:31Z
2022-06-04T07:01:52Z,42.805,6.029,13.3033,4.60108,2470.6,2022-6-04T09:03:35Z
2022-06-04T07:04:55Z,42.805,6.029,13.3039,4.60073,2470.624,2022-6-04T09:06:38Z
2022-06-04T07:07:58Z,42.805,6.029,13.3035,4.60122,2470.646,2022-6-04T09:09:41Z
2022-06-04T07:11:01Z,42.805,6.029,13.3048,4.60097,2470.646,2022-6-04T09:12:44Z
2022-06-04T07:14:05Z,42.805,6.029,13.3036,4.60119,2470.637,2022-6-04T09:15:47Z
2022-06-04T07:17:08Z,42.805,6.029,13.3045,4.60082,2470.707,2022-6-04T09:18:50Z
2022-06-04T07:20:11Z,42.805,6.029,13.3041,4.60099,2470.661,2022-6-04T09:21:53Z
2022-06-04T07:23:14Z,42.805,6.029,13.3042,4.60119,2470.707,2022-6-04T09:24:56Z
2022-06-04T07:26:17Z,42.805,6.029,13.3041,4.60064,2470.637,2022-6-04T09:28:00Z
2022-06-04T07:29:20Z,42.805,6.029,13.3041,4.60127,2470.67,2022-6-04T09:31:03Z
2022-06-04T07:32:23Z,42.805,6.029,13.3041,4.60088,2470.67,2022-6-04T09:34:06Z
2022-06-04T07:35:26Z,42.805,6.029,13.3043,4.60089,2470.646,2022-6-04T09:37:09Z
2022-06-04T07:38:30Z,42.805,6.029,13.3044,4.60081,2470.67,2022-6-04T09:40:12Z
2022-06-04T07:41:33Z,42.805,6.029,13.3041,4.60087,2470.646,2022-6-04T09:43:15Z
2022-06-04T07:44:36Z,42.805,6.029,13.3024,4.60126,2470.684,2022-6-04T09:46:18Z
2022-06-04T07:47:39Z,42.805,6.029,13.3043,4.60085,2470.707,2022-6-04T09:49:21Z
2022-06-04T07:50:42Z,42.805,6.029,13.3021,4.60097,2470.637,2022-6-04T09:52:24Z
2022-06-04T07:53:45Z,42.805,6.029,13.3043,4.60104,2470.67,2022-6-04T09:55:28Z
2022-06-04T07:56:48Z,42.805,6.029,13.3026,4.60106,2470.693,2022-6-04T09:58:31Z
2022-06-04T07:59:51Z,42.805,6.029,13.3024,4.60087,2470.67,2022-6-04T10:01:34Z
2022-06-04T08:02:54Z,42.805,6.029,13.3027,4.60081,2470.693,2022-6-04T10:04:37Z
2022-06-04T08:05:58Z,42.805,6.029,13.3030,4.60127,2470.707,2022-6-04T10:07:40Z
2022-06-04T08:09:01Z,42.805,6.029,13.3041,4.60108,2470.67,2022-6-04T10:10:43Z
2022-06-04T08:12:04Z,42.805,6.029,13.3097,4.60122,2470.693,2022-6-04T10:13:46Z
2022-06-04T08:15:07Z,42.805,6.029,13.3024,4.60127,2470.661,2022-6-04T10:16:49Z
2022-06-04T08:18:10Z,42.805,6.029,13.3031,4.60123,2470.67,2022-6-04T10:19:53Z
2022-06-04T08:21:13Z,42.805,6.029,13.3039,4.60122,2470.693,2022-6-04T10:22:56Z
2022-06-04T08:24:16Z,42.805,6.029,13.3079,4.60141,2470.693,2022-6-04T10:25:59Z
2022-06-04T08:27:19Z,42.805,6.029,13.3045,4.60125,2470.693,2022-6-04T10:29:02Z
2022-06-04T08:30:23Z,42.805,6.029,13.3036,4.60129,2470.646,2022-6-04T10:32:05Z
2022-06-04T08:33:26Z,42.805,6.029,13.3035,4.60135,2470.67,2022-6-04T10:35:08Z
2022-06-04T08:36:29Z,42.805,6.029,13.3039,4.60134,2470.684,2022-6-04T10:38:11Z
2022-06-04T08:39:32Z,42.805,6.029,13.3038,4.60097,2470.693,2022-6-04T10:41:14Z
2022-06-04T08:42:35Z,42.805,6.029,13.3041,4.60119,2470.67,2022-6-04T10:44:17Z
2022-06-04T08:45:38Z,42.805,6.029,13.3036,4.60103,2470.73,2022-6-04T10:47:21Z
2022-06-04T08:48:41Z,42.805,6.029,13.3039,4.60097,2470.67,2022-6-04T10:50:24Z
2022-06-04T08:51:44Z,42.805,6.029,13.3040,4.60110,2470.707,2022-6-04T10:53:27Z
2022-06-04T08:54:47Z,42.805,6.029,13.3034,4.60117,2470.67,2022-6-04T10:56:30Z
2022-06-04T08:57:51Z,42.805,6.029,13.3042,4.60092,2470.67,2022-6-04T10:59:33Z
2022-06-04T09:00:54Z,42.805,6.029,13.3061,4.60057,2470.661,2022-6-04T11:02:36Z
2022-06-04T09:03:57Z,42.805,6.029,13.3036,4.60090,2470.67,2022-6-04T11:05:39Z
2022-06-04T09:07:00Z,42.805,6.029,13.3041,4.60081,2470.707,2022-6-04T11:08:42Z
2022-06-04T09:10:03Z,42.805,6.029,13.3031,4.60130,2470.693,2022-6-04T11:11:46Z
2022-06-04T09:13:06Z,42.805,6.029,13.3036,4.60119,2470.684,2022-6-04T11:14:49Z
2022-06-04T09:16:09Z,42.805,6.029,13.3026,4.60147,2470.684,2022-6-04T11:17:52Z
2022-06-04T09:19:12Z,42.805,6.029,13.3029,4.60123,2470.684,2022-6-04T11:20:55Z
2022-06-04T09:22:16Z,42.805,6.029,13.3039,4.60104,2470.646,2022-6-04T11:23:58Z
2022-06-04T09:25:19Z,42.805,6.029,13.3027,4.60176,2470.707,2022-6-04T11:27:01Z
2022-06-04T09:28:22Z,42.805,6.029,13.3037,4.60096,2470.67,2022-6-04T11:30:04Z
2022-06-04T09:31:25Z,42.805,6.029,13.3040,4.60079,2470.707,2022-6-04T11:33:07Z
2022-06-04T09:34:28Z,42.805,6.029,13.3023,4.60106,2470.684,2022-6-04T11:36:11Z
2022-06-04T09:37:31Z,42.805,6.029,13.3025,4.60129,2470.67,2022-6-04T11:39:14Z
2022-06-04T09:40:34Z,42.805,6.029,13.3031,4.60119,2470.684,2022-6-04T11:42:17Z
2022-06-04T09:43:37Z,42.805,6.029,13.3032,4.60103,2470.679,2022-6-04T11:45:20Z
2022-06-04T09:46:41Z,42.805,6.029,13.3036,4.60104,2470.684,2022-6-04T11:48:23Z
2022-06-04T09:49:44Z,42.805,6.029,13.3029,4.60077,2470.67,2022-6-04T11:51:26Z
2022-06-04T09:52:47Z,42.805,6.029,13.3036,4.60110,2470.67,2022-6-04T11:54:29Z
2022-06-04T09:55:50Z,42.805,6.029,13.3033,4.60102,2470.67,2022-6-04T11:57:32Z
2022-06-04T09:58:53Z,42.805,6.029,13.3025,4.60101,2470.74,2022-6-04T12:00:36Z
2022-06-04T10:01:56Z,42.805,6.029,13.3024,4.60090,2470.693,2022-6-04T12:03:39Z
2022-06-04T10:04:59Z,42.805,6.029,13.3029,4.60087,2470.707,2022-6-04T12:06:42Z
2022-06-04T10:08:02Z,42.805,6.029,13.3026,4.60067,2470.67,2022-6-04T12:09:45Z
2022-06-04T10:11:06Z,42.805,6.029,13.3025,4.60092,2470.707,2022-6-04T12:12:48Z
2022-06-04T10:14:09Z,42.805,6.029,13.3015,4.60091,2470.67,2022-6-04T12:15:51Z
2022-06-04T10:17:12Z,42.805,6.029,13.3019,4.60140,2470.693,2022-6-04T12:18:54Z
2022-06-04T10:20:15Z,42.805,6.029,13.3015,4.60109,2470.67,2022-6-04T12:21:57Z
2022-06-04T10:23:18Z,42.805,6.029,13.3017,4.60096,2470.693,2022-6-04T12:25:00Z
2022-06-04T10:26:21Z,42.805,6.029,13.3030,4.60109,2470.684,2022-6-04T12:28:04Z
2022-06-04T10:29:24Z,42.805,6.029,13.3033,4.60097,2470.717,2022-6-04T12:31:07Z
2022-06-04T10:32:27Z,42.805,6.029,13.3019,4.60107,2470.646,2022-6-04T12:34:10Z
2022-06-04T10:35:30Z,42.805,6.029,13.3019,4.60101,2470.693,2022-6-04T12:37:13Z
2022-06-04T10:38:34Z,42.805,6.029,13.3021,4.60117,2470.707,2022-6-04T12:40:16Z
2022-06-04T10:41:37Z,42.805,6.029,13.3029,4.60115,2470.646,2022-6-04T12:43:19Z
2022-06-04T10:44:40Z,42.805,6.029,13.3029,4.60117,2470.637,2022-6-04T12:46:22Z
2022-06-04T10:47:43Z,42.805,6.029,13.3034,4.60103,2470.684,2022-6-04T12:49:25Z
2022-06-04T10:50:46Z,42.805,6.029,13.3015,4.60098,2470.693,2022-6-04T12:52:29Z
2022-06-04T10:53:49Z,42.805,6.029,13.3021,4.60098,2470.656,2022-6-04T12:55:32Z
2022-06-04T10:56:52Z,42.805,6.029,13.3019,4.60105,2470.646,2022-6-04T12:58:35Z
2022-06-04T10:59:56Z,42.805,6.029,13.3018,4.60103,2470.693,2022-6-04T13:01:38Z
2022-06-04T11:02:59Z,42.805,6.029,13.3019,4.60097,2470.693,2022-6-04T13:04:41Z
2022-06-04T11:06:02Z,42.805,6.029,13.3016,4.60084,2470.684,2022-6-04T13:07:44Z
2022-06-04T11:09:05Z,42.805,6.029,13.3015,4.60078,2470.624,2022-6-04T13:10:47Z
2022-06-04T11:12:08Z,42.805,6.029,13.3019,4.60082,2470.684,2022-6-04T13:13:50Z
2022-06-04T11:15:11Z,42.805,6.029,13.3014,4.60060,2470.661,2022-6-04T13:16:54Z
2022-06-04T11:18:14Z,42.805,6.029,13.3024,4.60100,2470.67,2022-6-04T13:19:57Z
2022-06-04T11:21:17Z,42.805,6.029,13.3039,4.60087,2470.67,2022-6-04T13:23:00Z
2022-06-04T11:24:20Z,42.805,6.029,13.3017,4.60103,2470.646,2022-6-04T13:26:03Z
2022-06-04T11:27:24Z,42.805,6.029,13.3021,4.60095,2470.646,2022-6-04T13:29:06Z
2022-06-04T11:30:27Z,42.805,6.029,13.3031,4.60107,2470.661,2022-6-04T13:32:09Z
2022-06-04T11:33:30Z,42.805,6.029,13.3026,4.60121,2470.646,2022-6-04T13:35:12Z
2022-06-04T11:36:33Z,42.805,6.029,13.3018,4.60125,2470.624,2022-6-04T13:38:15Z
2022-06-04T11:39:36Z,42.805,6.029,13.3023,4.60117,2470.646,2022-6-04T13:41:19Z
2022-06-04T11:42:39Z,42.805,6.029,13.3023,4.60103,2470.646,2022-6-04T13:44:22Z
2022-06-04T11:45:42Z,42.805,6.029,13.3028,4.60114,2470.624,2022-6-04T13:47:25Z
2022-06-04T11:48:45Z,42.805,6.029,13.3026,4.60112,2470.646,2022-6-04T13:50:28Z
2022-06-04T11:51:49Z,42.805,6.029,13.3030,4.60127,2470.661,2022-6-04T13:53:31Z
2022-06-04T11:54:52Z,42.805,6.029,13.3016,4.60108,2470.661,2022-6-04T13:56:34Z
2022-06-04T11:57:55Z,42.805,6.029,13.3024,4.60110,2470.646,2022-6-04T13:59:37Z
2022-06-04T12:00:58Z,42.805,6.029,13.3026,4.60105,2470.661,2022-6-04T14:02:40Z
2022-06-04T12:04:01Z,42.805,6.029,13.3015,4.60107,2470.646,2022-6-04T14:05:44Z
2022-06-04T12:07:04Z,42.805,6.029,13.3028,4.60102,2470.624,2022-6-04T14:08:47Z
2022-06-04T12:10:07Z,42.805,6.029,13.3026,4.60104,2470.67,2022-6-04T14:11:50Z
2022-06-04T12:13:10Z,42.805,6.029,13.3018,4.60086,2470.637,2022-6-04T14:14:53Z
2022-06-04T12:16:13Z,42.805,6.029,13.3035,4.60093,2470.614,2022-6-04T14:17:56Z
2022-06-04T12:19:17Z,42.805,6.029,13.3024,4.60110,2470.624,2022-6-04T14:20:59Z
2022-06-04T12:22:20Z,42.805,6.029,13.3034,4.60110,2470.6,2022-6-04T14:24:02Z
2022-06-04T12:25:23Z,42.805,6.029,13.3025,4.60107,2470.637,2022-6-04T14:27:05Z
2022-06-04T12:28:26Z,42.805,6.029,13.3021,4.60110,2470.637,2022-6-04T14:30:08Z
2022-06-04T12:31:29Z,42.805,6.029,13.3030,4.60109,2470.646,2022-6-04T14:33:12Z
2022-06-04T12:34:32Z,42.805,6.029,13.3022,4.60094,2470.637,2022-6-04T14:36:15Z
2022-06-04T12:37:35Z,42.805,6.029,13.3029,4.60102,2470.614,2022-6-04T14:39:18Z
2022-06-04T12:40:38Z,42.805,6.029,13.3016,4.60087,2470.624,2022-6-04T14:42:21Z
2022-06-04T12:43:42Z,42.805,6.029,13.3019,4.60126,2470.614,2022-6-04T14:45:24Z
2022-06-04T12:46:45Z,42.805,6.029,13.3019,4.60111,2470.637,2022-6-04T14:48:27Z
2022-06-04T12:49:48Z,42.805,6.029,13.3015,4.60072,2470.614,2022-6-04T14:51:30Z
2022-06-04T12:52:51Z,42.805,6.029,13.3018,4.60082,2470.637,2022-6-04T14:54:33Z
2022-06-04T12:55:54Z,42.805,6.029,13.3015,4.60107,2470.591,2022-6-04T14:57:37Z
2022-06-04T12:58:57Z,42.805,6.029,13.3011,4.60087,2470.6,2022-6-04T15:00:40Z
2022-06-04T13:02:00Z,42.805,6.029,13.3026,4.60109,2470.624,2022-6-04T15:03:43Z
2022-06-04T13:05:03Z,42.805,6.029,13.3014,4.60084,2470.614,2022-6-04T15:06:46Z
2022-06-04T13:08:07Z,42.805,6.029,13.3021,4.60075,2470.614,2022-6-04T15:09:49Z
2022-06-04T13:11:10Z,42.805,6.029,13.3026,4.60088,2470.624,2022-6-04T15:12:52Z
2022-06-04T13:14:13Z,42.805,6.029,13.3024,4.60109,2470.577,2022-6-04T15:15:55Z
2022-06-04T13:17:16Z,42.805,6.029,13.3015,4.60086,2470.6,2022-6-04T15:18:58Z
2022-06-04T13:20:19Z,42.805,6.029,13.3014,4.60089,2470.6,2022-6-04T15:22:02Z
2022-06-04T13:23:22Z,42.805,6.029,13.3020,4.60089,2470.6,2022-6-04T15:25:05Z
2022-06-04T13:26:25Z,42.805,6.029,13.3020,4.60087,2470.6,2022-6-04T15:28:08Z
2022-06-04T13:29:28Z,42.805,6.029,13.3017,4.60084,2470.624,2022-6-04T15:31:11Z
2022-06-04T13:32:32Z,42.805,6.029,13.3014,4.60089,2470.577,2022-6-04T15:34:14Z
2022-06-04T13:35:35Z,42.805,6.029,13.3017,4.60064,2470.577,2022-6-04T15:37:17Z
2022-06-04T13:38:38Z,42.805,6.029,13.3012,4.60081,2470.577,2022-6-04T15:40:20Z
2022-06-04T13:41:41Z,42.805,6.029,13.3022,4.60087,2470.577,2022-6-04T15:43:23Z
2022-06-04T13:44:44Z,42.805,6.029,13.3020,4.60094,2470.591,2022-6-04T15:46:27Z
2022-06-04T13:47:47Z,42.805,6.029,13.3011,4.60092,2470.6,2022-6-04T15:49:30Z
2022-06-04T13:50:50Z,42.805,6.029,13.3025,4.60092,2470.624,2022-6-04T15:52:33Z
2022-06-04T13:53:53Z,42.805,6.029,13.3024,4.60074,2470.6,2022-6-04T15:55:36Z
2022-06-04T13:56:56Z,42.805,6.029,13.3014,4.60079,2470.6,2022-6-04T15:58:39Z
2022-06-04T14:00:00Z,42.805,6.029,13.3019,4.60084,2470.563,2022-6-04T16:01:42Z
2022-06-04T14:03:03Z,42.805,6.029,13.3013,4.60074,2470.577,2022-6-04T16:04:45Z
2022-06-04T14:06:06Z,42.805,6.029,13.3024,4.60093,2470.6,2022-6-04T16:07:48Z
2022-06-04T14:09:09Z,42.805,6.029,13.3014,4.60117,2470.553,2022-6-04T16:10:51Z
2022-06-04T14:12:12Z,42.805,6.029,13.3008,4.60074,2470.614,2022-6-04T16:13:55Z
2022-06-04T14:15:15Z,42.805,6.029,13.3012,4.60051,2470.577,2022-6-04T16:16:58Z
2022-06-04T14:18:18Z,42.805,6.029,13.3007,4.60092,2470.591,2022-6-04T16:20:01Z
2022-06-04T14:21:21Z,42.805,6.029,13.3017,4.60074,2470.577,2022-6-04T16:23:04Z
2022-06-04T14:24:25Z,42.805,6.029,13.3013,4.60110,2470.6,2022-6-04T16:26:07Z
2022-06-04T14:27:28Z,42.805,6.029,13.3008,4.60069,2470.586,2022-6-04T16:29:10Z
2022-06-04T14:30:31Z,42.805,6.029,13.3024,4.60102,2470.577,2022-6-04T16:32:13Z
2022-06-04T14:33:34Z,42.805,6.029,13.3027,4.60080,2470.577,2022-6-04T16:35:16Z
2022-06-04T14:36:37Z,42.805,6.029,13.3014,4.60067,2470.553,2022-6-04T16:38:20Z
2022-06-04T14:39:40Z,42.805,6.029,13.3027,4.60082,2470.577,2022-6-04T16:41:23Z
2022-06-04T14:42:43Z,42.805,6.029,13.3015,4.60072,2470.577,2022-6-04T16:44:26Z
2022-06-04T14:45:46Z,42.805,6.029,13.3016,4.60073,2470.614,2022-6-04T16:47:29Z
2022-06-04T14:48:50Z,42.805,6.029,13.3017,4.60072,2470.591,2022-6-04T16:50:32Z
2022-06-04T14:51:53Z,42.805,6.029,13.3021,4.60086,2470.577,2022-6-04T16:53:35Z
2022-06-04T14:54:56Z,42.805,6.029,13.3011,4.60087,2470.6,2022-6-04T16:56:38Z
2022-06-04T14:57:59Z,42.805,6.029,13.3026,4.60119,2470.577,2022-6-04T16:59:41Z
2022-06-04T15:01:02Z,42.805,6.029,13.3027,4.60094,2470.553,2022-6-04T17:02:45Z
2022-06-04T15:04:05Z,42.805,6.029,13.3020,4.60110,2470.577,2022-6-04T17:05:48Z
2022-06-04T15:07:08Z,42.805,6.029,13.3018,4.60088,2470.6,2022-6-04T17:08:51Z
2022-06-04T15:10:11Z,42.805,6.029,13.3025,4.60106,2470.567,2022-6-04T17:11:54Z
2022-06-04T15:13:14Z,42.805,6.029,13.3044,4.60113,2470.553,2022-6-04T17:14:57Z